Regional Weather Roundup
Issued by NWS Columbia, SC

Home | Current Version | Previous Version | Text Only | Print | Product List | Glossary On
Versions: 1 2 3 4 5 6 7 8 9 10 11 12 13 14 15 16 17 18 19 20 21 22 23 24 25 26 27 28 29 30 31 32 33 34 35 36 37 38 39 40 41 42 43 44 45 46 47 48 49 50
000
ASUS42 KCAE 271010
RWRCAE
REGIONAL WEATHER ROUNDUP
NATIONAL WEATHER SERVICE COLUMBIA SC
500 AM EST THU NOV 27 2014

NOTE: "FAIR" INDICATES FEW OR NO CLOUDS BELOW 12,000 FEET WITH NO
SIGNIFICANT WEATHER AND/OR OBSTRUCTIONS TO VISIBILITY.

NOT ALL STATIONS ARE QUALITY CONTROLLED BY THE NATIONAL
WEATHER SERVICE. USE DATA WITH CAUTION...ESPECIALLY
DEWPOINT OBSERVATIONS.

SCZ001>056-GAZ040-063>065-077-271100-
...UPSTATE SOUTH CAROLINA...

CITY           SKY/WX    TMP DP  RH WIND       PRES   REMARKS
ANDERSON       CLEAR     44  29  55 W17       30.04R
LIBERTY        FAIR      35  33  92 MISG      29.99R
SPARTANBURG    FAIR      37  32  81 SW3       29.97R
CLEMSON        CLEAR     42  30  62 W9        30.03R
GREENVILLE     CLEAR     38  31  76 SW6       29.99R WCI  33
GREENWOOD      CLEAR     45  29  53 W15G24    30.03R
GREER          CLEAR     37  34  89 SW7       29.96S WCI  32
ROCK HILL      PTCLDY    33  31  92 S3        29.97S
CHESTER        FAIR      36  34  93 CALM      29.98S
LAURENS        FAIR      41  27  56 W9G16     30.00R


...CENTRAL SOUTH CAROLINA...

CITY           SKY/WX    TMP DP  RH WIND       PRES   REMARKS
COLUMBIA APT   CLEAR     43  32  65 SW9       30.02S
COLUMBIA OWENS CLEAR     46  32  58 SW8       30.03F
DARLINGTON     MOCLDY    41  36  81 S7        30.01F
FLORENCE       CLOUDY    42  38  85 S9        30.02F
MCENTIRE ANGB  CLEAR     42  34  73 SW8       30.03S
ORANGEBURG     CLEAR     40  34  79 SW9       30.05F WCI  34
SUMTER SHAW    CLEAR     41  35  78 SW9       30.01F
NEWBERRY       FAIR      41  32  70 SW12G17   30.03R
AIKEN          FAIR      43  32  65 SW9       30.07F
BARNWELL       FAIR      41  36  81 SW5       30.08S
CAMDEN         FAIR      39  32  75 S7        30.01F WCI  34
LANCASTER      LGT RAIN  39  34  81 S3        29.98S
WINNSBORO      FAIR      43  32  65 SW9       29.99S


...EASTERN AND COASTAL SOUTH CAROLINA...

CITY           SKY/WX    TMP DP  RH WIND       PRES   REMARKS
MYRTLE BEACH   MOCLDY    43  37  81 SW7       30.07F
N MYRTLE BCH   MOCLDY    45  37  73 W7        30.06F
CONWAY         CLOUDY    39  39 100 CALM      30.06F
MARION         CLOUDY    43  41  93 S7        30.03F
FLORENCE       CLOUDY    42  38  85 S9        30.02F
DARLINGTON     MOCLDY    41  36  81 S7        30.01F
CHARLESTON APT CLEAR     42  36  79 SW6       30.08F
MOUNT PLEASANT FAIR      43  37  81 SW6       30.09S
WALTERBORO     MOSUNNY   45  37  76 SW9       30.09S
BEAUFORT       CLEAR     47  36  65 SW13      30.11S


...EASTERN GEORGIA...

CITY           SKY/WX    TMP DP  RH WIND       PRES   REMARKS
AUGUSTA BUSH F CLEAR     42  32  67 SW9       30.08R
AUGUSTA DANIEL CLEAR     47  31  53 W8        30.07S
THOMSON        CLEAR     44  38  77 W3        30.13R
WASHINGTON     FAIR      46  32  57 W9        30.09R
CLAXTON        FAIR      46  21  36 W8        30.15R
SYLVANIA       SUNNY     46  38  72 W5        30.12S
STATESBORO     CLEAR     45  37  73 W6        30.13R
SAVANNAH       CLEAR     46  35  65 SW12      30.14R


...SOUTHERN NORTH CAROLINA...

CITY           SKY/WX    TMP DP  RH WIND       PRES   REMARKS
CHARLOTTE      MOCLDY    40  31  70 CALM      29.96F
MONROE         CLOUDY    41  33  73 SW6       29.96F
WADESBORO      CLOUDY    41  37  88 CALM      29.98F
ROCKINGHAM     CLOUDY    41  38  91 CALM      29.99F
RUTHERFORDTON  PTCLDY    35  35  99 CALM      29.96R FOG
ASHEVILLE      MOCLDY    35  32  88 N9        29.95S WCI  28

$$



USA.gov is the U.S. government's official web portal to all federal, state and local government web resources and services.